Location: Brou
(48.8833°N, 2.6333°E)
Time: 22:10:51
(UTC+00:00)

Daily predictions for brighter satellites

Satellite Brightness Start Highest point End
(mag) Time Altitude Azimuth Time Altitude Azimuth Time Altitude Azimuth
SL-16 R/B 2.4 16:56:42 10° S 17:02:13 57° ESE 17:07:47 10° NE
NOAA 6 4.1 17:00:02 10° SSE 17:05:14 84° ENE 17:10:28 10° NNW
NOSS 2-3 (D) 3.7 17:02:24 10° SSW 17:06:21 56° SE 17:10:58 10° NE
NOSS 3-1 (C) 3.3 17:03:29 10° SSW 17:08:44 69° SE 17:14:58 10° NE
Cosmos 332 Rocket 4.2 17:04:30 10° S 17:09:08 44° ESE 17:13:45 10° NE
Cosmos 2322 Rocket 2.4 17:06:09 10° S 17:11:32 51° ESE 17:16:59 10° NE
Cosmos 2219 Rocket 3.8 17:10:34 10° SE 17:13:17 14° E 17:16:01 10° ENE
ARGOS 3.8 17:09:09 10° SE 17:13:56 33° ENE 17:18:44 10° N
Cosmos 1953 3.0 17:11:49 10° SSW 17:15:49 59° WNW 17:19:50 10° N
Cosmos 1140 Rocket 4.3 17:12:43 10° N 17:17:16 29° NE 17:21:47 10° ESE
H-2A R/B 2.3 17:13:00 10° SE 17:18:16 53° ENE 17:23:35 10° N
SMAP 3.3 17:13:39 10° S 17:18:18 78° WSW 17:23:00 10° NNW
Cosmos 2360 Rocket 2.8 17:13:20 10° S 17:18:26 36° ESE 17:23:35 10° NE
NOSS 2-3 (C) 3.5 17:14:42 10° SSW 17:18:45 75° SE 17:23:33 10° NE
Cosmos 1821 Rocket 4.3 17:12:32 10° SSW 17:18:55 76° W 17:25:16 10° N
Cosmos 1408 3.6 17:17:40 10° NNE 17:20:39 24° ENE 17:23:36 10° SE
Cosmos 1602 Rocket 3.9 17:16:52 10° N 17:21:00 41° ENE 17:25:05 10° SE
H-2A R/B 3.7 17:18:05 10° ESE 17:21:12 21° ENE 17:24:14 10° NNE
Cosmos 1934 Rocket 3.9 17:16:31 10° S 17:22:31 67° E 17:28:32 10° NNE
Cosmos 1844 3.9 17:17:56 10° NNW 17:23:38 54° NE 17:29:14 10° SE
Cosmos 1932 4.4 17:21:15 10° NW 17:27:30 75° NE 17:33:46 10° SE
Cosmos 407 Rocket 4.1 17:22:45 10° N 17:27:41 36° ENE 17:32:36 10° ESE
SME Rocket 4.2 17:23:27 10° N 17:27:57 66° WNW 17:34:30 10° SSW
X-37B 3.7 17:27:51 10° SW 17:28:19 10° SSW 17:28:46 10° SSW
Okean O Rocket 1.8 17:26:35 10° SE 17:30:44 46° ENE 17:34:56 10° N
Iridium 4 Rocket 3.4 17:26:10 10° N 17:30:59 71° E 17:36:16 10° S
Cosmos 2263 Rocket 4.4 17:26:33 10° NW 17:31:19 30° WSW 17:36:04 10° SSW
COSMO-SKYMED 1 3.1 17:27:47 10° NNE 17:31:50 36° E 17:35:51 10° SSE
CZ-2C R/B 3.2 17:27:07 10° NNE 17:32:16 37° E 17:37:18 10° SSE
Cosmos 371 Rocket 3.7 17:28:57 10° SSW 17:33:48 70° WNW 17:38:42 10° NNE
Cosmos 614 Rocket 3.9 17:30:12 10° NNW 17:35:19 80° ENE 17:40:26 10° SSE
In-Cosmos 22 Rocket 4.2 17:31:07 10° N 17:36:20 53° ENE 17:41:33 10° SSE
Cosmos 2228 4.0 17:32:57 10° SE 17:36:34 25° E 17:40:11 10° NNE
Cosmos 220 Rocket 4.0 17:34:25 10° S 17:38:45 61° ESE 17:43:05 10° NNE
Tiangong 3.8 17:37:31 10° SW 17:39:20 14° SSW 17:41:08 10° SSE
NOSS 2-2 (E) 4.5 17:37:06 10° SSE 17:39:33 19° ESE 17:40:31 17° E
Cosmos 2333 Rocket 3.1 17:34:55 10° SSE 17:39:36 27° ESE 17:44:21 10° NE
SJ-11-01 4.5 17:35:40 10° SE 17:40:11 49° ENE 17:44:46 10° N
Meteor 2-10 Rocket 3.7 17:35:12 10° S 17:40:29 53° E 17:45:36 10° NNE
CZ-4C R/B 3.9 17:37:51 10° NE 17:40:38 25° E 17:43:21 10° SSE
CZ-4B R/B 3.2 17:35:14 10° SSE 17:40:53 76° ENE 17:46:33 10° NNW
Cosmos 1825 Rocket 4.3 17:38:23 10° N 17:42:13 30° ENE 17:46:02 10° SE
Cosmos 1980 Rocket 4.0 17:38:06 10° WSW 17:43:00 29° NW 17:47:56 10° NNE
Cosmos 2251 Rocket 3.5 17:38:14 10° NNW 17:43:32 87° ENE 17:48:45 10° SSE
Cosmos 1892 2.7 17:42:16 10° N 17:45:58 52° ENE 17:49:38 10° SSE
Okean 1-7 Rocket 4.4 17:41:38 10° NNW 17:45:59 56° W 17:50:21 10° S
Cosmos 44 3.5 17:41:06 10° SSW 17:46:30 74° SE 17:51:48 10° NE
Lacrosse 4 Rocket 3.2 17:45:47 10° NW 17:49:47 37° WSW 17:53:50 10° S
Cosmos 1758 Rocket 3.6 17:46:58 10° N 17:51:14 55° ENE 17:55:30 10° SSE
FALCON 9 DEB 3.1 17:50:56 10° SW 17:53:48 49° SSE 17:54:55 30° E
NOSS 5 (C) 4.2 17:50:47 10° NW 17:53:48 68° NE 17:56:21 17° SE
Cosmos 1626 Rocket 3.9 17:49:51 10° NNW 17:54:09 66° W 17:58:26 10° S
Landsat 5 3.7 17:50:38 10° NNE 17:55:03 55° E 17:59:29 10° S
Helios 1B 4.5 17:52:14 10° NNE 17:56:36 75° ESE 18:00:56 10° S
CZ-4C R/B 3.5 17:53:46 10° SE 17:56:18 16° ESE 17:56:18 16° ESE
Cosmos 1953 Rocket 4.4 17:54:09 10° N 17:58:08 30° ENE 18:00:34 18° ESE
Cosmos 2322 4.3 17:53:14 10° SSE 17:58:18 34° ESE 18:02:40 13° NE
Okean-O 3.6 18:00:16 23° E 18:01:28 27° ENE 18:05:11 10° N
Cosmos 1844 Rocket 2.9 17:56:50 10° NNW 18:02:25 73° WSW 18:07:57 10° SSE
USA 215 3.2 17:58:12 14° NE 18:03:59 88° SSE 18:10:33 10° WSW
CZ-4 R/B 1.7 18:02:17 10° SE 18:06:11 46° ENE 18:10:11 10° N
Cosmos 2344 4.5 17:59:11 10° NW 18:08:15 80° SW 18:20:59 10° SSE
NOSS 2-3 (E) 4.5 18:05:08 10° WSW 18:09:10 47° NW 18:13:43 11° NE
Cosmos 1459 Rocket 4.3 18:06:39 10° SSE 18:12:15 38° E 18:17:49 10° NNE
SL-8 R/B 3.7 18:08:33 10° W 18:13:21 80° S 18:15:44 30° ESE
USA 229 DEB 3.6 18:08:26 10° SW 18:14:51 84° NW 18:21:27 12° NE
USA 229 3.6 18:08:32 10° SW 18:14:58 84° NW 18:21:32 12° NE
Meteor 1-4 Rocket 3.4 18:12:25 10° SSW 18:15:45 47° WNW 18:19:06 10° N
Cosmos 1190 Rocket 4.0 18:10:45 10° NNW 18:15:55 60° ENE 18:20:02 16° SE
Cosmos 1455 2.1 18:14:26 10° S 18:18:08 56° E 18:21:51 10° NNE
H-2A R/B 3.6 18:20:26 19° SE 18:20:26 19° SE 18:21:55 10° SSE
Feng Yun 1-1 Rocket 4.2 18:13:35 10° SSE 18:19:14 82° ENE 18:25:05 10° NNW
FALCON 9 DEB 2.5 18:16:24 10° WSW 18:19:21 86° SSE 18:19:34 74° E
Cosmos 2056 Rocket 4.0 18:15:00 10° SSE 18:19:36 35° ESE 18:20:43 32° ENE
SKYMED 2 3.7 18:15:39 10° N 18:20:00 75° WNW 18:24:20 10° SSW
Cosmos 1825 2.0 18:16:24 10° N 18:20:09 65° ENE 18:23:11 15° SSE
Cosmos 292 Rocket 4.2 18:16:15 10° S 18:20:42 38° ESE 18:21:44 34° ENE
HJ-1C 3.7 18:21:34 45° NE 18:21:34 45° NE 18:24:16 10° N
YAOGAN 1 2.4 18:17:23 10° SSE 18:21:41 68° ENE 18:26:00 10° N
ATLAS 5 CENTAUR R/B 3.8 18:18:55 10° WNW 18:21:57 18° NNW 18:25:17 10° NNE
ATLAS 3B R/B 4.3 18:17:38 10° WNW 18:23:06 25° N 18:28:12 12° NE
Cosmos 2100 Rocket 4.1 18:20:42 10° SSE 18:26:49 54° E 18:33:00 10° NNE
NOSS 2-2 (C) 3.6 18:23:39 10° SSW 18:26:17 38° SSE 18:26:17 38° SSE
Spot 2 4.1 18:22:44 10° SSE 18:27:01 86° WSW 18:31:36 10° NNW
Cosmos 1606 Rocket 3.5 18:27:16 10° S 18:31:42 68° E 18:36:08 10° NNE
Cosmos 2173 Rocket 4.0 18:26:16 10° SSE 18:32:18 55° E 18:38:28 10° NNE
FALCON 9 DEB 3.0 18:31:15 10° WSW 18:34:34 74° S 18:34:34 74° S
CENTAUR R/B 3.7 18:29:36 10° NW 18:36:49 41° NNE 18:40:07 30° ENE
NOSS 3-1 (A) 3.7 18:32:05 10° WSW 18:37:29 61° NW 18:42:39 16° NE
Cosmos 2278 Rocket 2.6 18:32:17 10° NNW 18:37:42 43° NE 18:38:33 40° ENE
FALCON 9 DEB 3.5 18:35:56 10° WSW 18:38:14 50° WSW 18:38:14 50° WSW
USA 267 3.8 18:33:17 12° SE 18:39:18 55° SW 18:45:43 10° WNW
Cosmos 1802 Rocket 4.0 18:36:39 10° SSE 18:42:32 51° E 18:48:30 10° NNE
COSMOS 2428 2.7 18:38:34 10° S 18:44:04 54° ESE 18:45:33 42° ENE
SL-16 R/B 3.9 18:41:40 10° WSW 18:46:40 31° NW 18:51:41 10° NNE
SL-08 RB Rocket 4.2 18:42:19 10° S 18:46:51 60° W 18:51:27 10° NNW
MetOp-A 4.0 18:44:20 31° SE 18:46:52 68° ENE 18:52:12 10° N
SL-24 R/B - RUBIN 2 4.2 18:40:58 10° SSW 18:46:52 58° ESE 18:47:58 49° E
Cosmos 2333 4.2 18:41:39 10° SSW 18:47:19 86° WNW 18:52:01 16° NNE
IRS-1C Rocket 4.0 18:43:15 15° SSE 18:47:36 83° ENE 18:52:54 10° NNW
Cosmos 1371 Rocket 3.8 18:46:25 10° SSW 18:51:39 72° ESE 18:53:37 39° NE
FALCON 9 DEB 4.4 18:48:46 10° WSW 18:50:33 33° WSW 18:50:33 33° WSW
NOSS 3-2 (A) 4.3 18:46:32 10° NW 18:53:30 50° NE 18:55:44 40° E
ARGOS 4.3 18:48:57 10° S 18:54:04 43° W 18:59:15 10° NNW
Cosmos 2322 Rocket 3.7 18:50:48 10° WSW 18:55:50 33° NW 19:00:54 10° NNE
Cosmos 2219 Rocket 2.0 18:50:44 10° SSW 18:56:19 82° ESE 18:58:59 33° NNE
H-2A R/B 3.5 18:52:23 10° S 18:56:25 45° W 19:00:19 10° NNW
H-2A R/B 4.3 18:53:27 10° SSW 18:57:59 26° W 19:02:32 10° NW
Cosmos 1140 Rocket 4.4 18:54:17 10° NNW 18:59:17 49° WSW 19:04:18 10° S
Cosmos 1624 Rocket 3.9 18:54:27 10° SSW 18:59:46 77° ESE 19:01:14 48° NE
Cosmos 1726 Rocket 3.6 18:55:37 10° SSW 19:00:05 81° W 19:04:34 10° N
Lacrosse 5 3.4 18:56:26 10° SSW 18:58:38 22° S 18:58:38 22° S
Cosmos 2360 Rocket 3.2 18:56:58 10° SW 19:02:21 44° NW 19:07:47 10° NNE
USA 238 DEB 4.3 18:59:15 10° NW 19:06:01 43° NNE 19:07:09 41° NE
USA 238 4.3 18:59:21 10° NW 19:06:06 43° NNE 19:07:14 40° NE
Okean O Rocket 4.1 19:04:00 10° SW 19:07:19 21° W 19:10:40 10° NW
Tsikada Rocket 4.0 19:04:01 10° N 19:09:53 58° ENE 19:09:53 58° ENE
Cosmos 2058 3.5 19:07:25 10° NNW 19:10:53 55° NW 19:10:53 55° NW
CZ-2C R/B 4.0 19:07:27 10° N 19:12:34 39° WNW 19:17:35 10° SW
Cosmos 2016 Rocket 3.8 19:08:20 10° S 19:14:29 74° E 19:20:36 10° NNE
Cosmos 1943 Rocket 3.7 19:11:11 10° N 19:14:16 22° NNE 19:14:16 22° NNE
Meteor 2-1 Rocket 4.0 19:11:00 10° S 19:16:36 86° ESE 19:22:10 10° NNE
DMSP B5D2-2 4.3 19:15:12 10° N 19:20:25 67° WNW 19:25:34 10° SSW
Cosmos 1725 Rocket 4.1 19:16:28 10° S 19:23:54 57° NNE 19:28:50 10° NNE
Cosmos 676 Rocket 4.3 19:18:08 10° NNW 19:23:20 66° WSW 19:23:55 60° SW
Cosmos 2333 Rocket 2.7 19:17:56 10° SW 19:23:32 57° NW 19:26:46 25° NNE
Cosmos 1954 Rocket 4.4 19:18:32 10° NNW 19:23:43 62° WSW 19:24:31 55° SSW
CSL-04 Debris 4.4 19:22:52 47° SSW 19:24:21 68° WSW 19:29:48 10° NNW
CSL-04 Rocket 4.0 19:29:42 54° SSW 19:30:49 67° WSW 19:36:23 10° NNW
Okean-O 3.9 19:37:51 38° W 19:37:51 38° W 19:41:57 10° NNW
CZ-4 R/B 4.0 19:38:27 10° SW 19:41:25 19° W 19:44:25 10° NW
CZ-4C R/B 3.4 19:39:16 10° SW 19:41:33 29° SW 19:41:33 29° SW
USA 215 3.8 19:45:33 45° NNE 19:46:44 50° NNW 19:53:00 10° W
Cosmos 2061 Rocket 4.3 19:47:40 10° SSW 19:54:00 67° WNW 20:00:26 10° N
Cosmos 2369 Rocket 4.3 19:51:53 10° N 19:53:34 17° N 19:53:34 17° N
ATLAS 5 CENTAUR R/B 4.4 20:05:31 10° NNW 20:06:48 14° NNW 20:06:48 14° NNW
ATLAS 3B R/B 4.1 20:10:16 10° NW 20:15:27 27° N 20:15:27 27° N
Cosmos 2278 Rocket 3.7 20:16:33 10° NW 20:20:25 33° WNW 20:20:25 33° WNW
NOSS 3-2 (C) 4.4 20:20:15 10° NW 20:25:53 58° NNW 20:25:53 58° NNW
CENTAUR R/B 3.3 20:20:19 10° NW 20:27:18 71° NW 20:27:18 71° NW
COSMOS 2428 4.3 20:23:34 10° WSW 20:27:38 30° WNW 20:27:38 30° WNW
Cosmos 2219 Rocket 4.2 20:36:33 10° W 20:40:46 23° NW 20:40:46 23° NW
